sat.trackr.live / text

‹ back to catalog

STARLINK-3739

NORAD 52266 · 2022-041F

PAYLOAD ACTIVE UNKNOWN

§ Identity

Operator
Country
US
Launch date
2022-04-21
Launch site
AFETR
Launch vehicle
Mass (kg)
RCS (m²)

Purposes: comms

External: N2YO · Heavens-Above · Gunter

§ Orbital elements

Epoch: 2026-05-25T04:59:45.068064Z

Period
95.44 min
Inclination
53.2145°
Eccentricity
0.0001169
Mean motion
15.08845189 rev/d
Perigee alt
538.9 km
Apogee alt
540.5 km
Semi-major
6,917.9 km
B*
8.7909e-5
RAAN
125.6146°
Arg perigee
75.4498°
Mean anomaly
284.6623°
Rev number
22,591

§ Raw data

STARLINK-37391 52266U 22041F   26145.20816051  .00001112  00000+0  87909-4 0  99922 52266  53.2145 125.6146 0001169  75.4498 284.6623 15.08845189225911

JSON: /api/v1/satellites/52266 · /tle

For live sub-satellite position, see the globe view (requires WebGL).

§ Visibility from observer

Set your observer location to see the next 7 days of passes ≥ 10°. The values pass through the URL so the page stays shareable.

No JS? Fill the form by hand. The geolocation button needs JavaScript.